Hanford, WA
on Monday, February 4, 2013

Monday
Previous Day Next Day
Daily Summary
 ActualAverage (KMWH)Record (KMWH)
Temperature
Mean Temperature °F 33°F  
Max Temperature 38°F 40°F 53°F (2005)
Min Temperature 30°F 26°F -12°F (1985)
Degree Days
Heating Degree Days 31 32  
Month to date heating degree days 129  
Since 1 July heating degree days 3803  
Cooling Degree Days 0 0  
Month to date cooling degree days 0  
Year to date cooling degree days 0  
Moisture
Dew Point 33°F   
Average Humidity 95    
Maximum Humidity 100    
Minimum Humidity 75    
Precipitation
Precipitation 0.00 in 0.04 in 0.25 in (1986)
Month to date precipitation 0.15  
Year to date precipitation 1.29  
Wind
Wind Speed 4 mph   
Max Wind Speed 10 mph   
Max Gust Speed mph   
Visibility 5 miles   
Events Fog   

Key: T is trace of precipitation, MM is missing value
Source: NWS Daily Summary
Time(PST)TemperatureDew PointHumidity Pressure Visibility Wind DirectionWind SpeedGust SpeedPrecipitationEvents Conditions
12:50 AM 32.9°F 32.5°F 99% 30.17 in 4.0 miles SW 2.3 mph - N/A   Overcast
2:50 AM 32.0°F 32.0°F 100% 30.13 in 0.2 miles WSW 2.3 mph - N/A Fog Fog
3:50 AM 31.6°F 31.6°F 100% 30.17 in 0.1 miles SSE 3.5 mph - N/A Fog Light Freezing Fog
4:50 AM 30.9°F 30.9°F 100% 30.16 in 0.1 miles ESE 3.5 mph - N/A Fog Light Freezing Fog
5:50 AM 31.3°F 31.3°F 100% 30.16 in 0.1 miles SE 2.3 mph - N/A Fog Light Freezing Fog
6:50 AM 31.3°F 31.3°F 100% 30.14 in 0.1 miles ESE 3.5 mph - N/A Fog Light Freezing Fog
7:50 AM 31.6°F 31.6°F 100% 30.14 in 0.1 miles South 2.3 mph - N/A Fog Light Freezing Fog
8:50 AM 32.0°F 32.0°F 100% 30.15 in 0.2 miles East 3.5 mph - N/A Fog Light Freezing Fog
9:50 AM 33.1°F 32.9°F 99% 30.17 in 0.2 miles Calm Calm - N/A Fog Fog
10:50 AM 33.8°F 33.8°F 100% 30.17 in 0.1 miles South 3.5 mph - N/A Fog Fog
11:50 AM 34.5°F 34.5°F 100% 30.16 in 0.2 miles NNW 4.6 mph - N/A Fog Fog
12:50 PM 35.4°F 33.4°F 92% 30.14 in 1.0 miles South 2.3 mph - N/A   Overcast
1:50 PM 35.8°F 34.0°F 93% 30.12 in 2.0 miles NNW 4.6 mph - N/A   Overcast
2:50 PM 38.8°F 34.0°F 83% 30.10 in 10.0 miles NNW 4.6 mph - N/A   Overcast
3:50 PM 38.8°F 31.5°F 75% 30.07 in 12.0 miles WNW 4.6 mph - N/A   Overcast
4:50 PM 36.7°F 33.3°F 87% 30.06 in 15.0 miles NW 4.6 mph - N/A   Mostly Cloudy
5:50 PM 34.2°F 32.5°F 94% 30.05 in 12.0 miles NW 8.1 mph - N/A   Mostly Cloudy
6:50 PM 34.9°F 32.5°F 91% 30.05 in 12.0 miles NW 10.4 mph - N/A   Overcast
10:50 PM 33.6°F 32.4°F 95% 29.99 in 15.0 miles WNW 6.9 mph - N/A   Overcast
11:50 PM 33.6°F 32.7°F 96% 29.97 in 12.0 miles NW 6.9 mph - N/A   Overcast
Moon Phase
Feb. 04 Feb. 10 Feb. 17 Feb. 25 Mar. 04
Sunrise:07:17 AM (PST) Moon Rise:02:03 AM (PST)2/4
Sunset:05:07 PM (PST) Moon Set:11:29 AM (PST)2/4

Copyright © 2014 The Weather Underground, Inc.